Weather reports worldwide

Advertisment
Quimper, France (7201): temperature & dewpoint: 10.01.2018 08:00:00 - 16.01.2018 08:00:00 (CET)Quimper, France (7201): temperature 5cm: 10.01.2018 08:00:00 - 16.01.2018 08:00:00 (CET)Quimper, France (7201): temperature -20cm: 10.01.2018 08:00:00 - 16.01.2018 08:00:00 (CET)Quimper, France (7201): wind speed & gusts: 10.01.2018 08:00:00 - 16.01.2018 08:00:00 (CET)Quimper, France (7201): wind direction: 10.01.2018 08:00:00 - 16.01.2018 08:00:00 (CET)Quimper, France (7201): reduced air pressure: 10.01.2018 08:00:00 - 16.01.2018 08:00:00 (CET)Quimper, France (7201): visibility: 10.01.2018 08:00:00 - 16.01.2018 08:00:00 (CET)Quimper, France (7201): sunshine duration: 10.01.2018 08:00:00 - 16.01.2018 08:00:00 (CET)Quimper, France (7201): precipitation: 10.01.2018 08:00:00 - 16.01.2018 08:00:00 (CET)
Date & Time tt [°C] td [°C] tt 5cm [°C] tt -20cm [°C] ff [km/h] ff [kn] fx [km/h] fx [kn] dd ppp [hPa] vv [km] sd [min] rr [mm]
16.01.2018 08:00:00 10,3 6,8 8,8 8,1 33 18 67 36 WNW 1009,4 10 0 0,0
16.01.2018 07:00:00 10,9 7,4 9,9 8,0 33 18 63 34 WNW 1008,7 12 0 0,0
16.01.2018 06:00:00 10,9 8,3 9,8 8,0 28 15 57 31 W 1008,2 14 0 0,0
16.01.2018 05:00:00 10,8 8,4 9,4 8,0 34 18 56 30 W 1008,2 10 0 0,0
16.01.2018 04:00:00 10,3 8,6 9,4 7,9 29 16 60 32 W 1008,4 3,6 0 0,4
16.01.2018 03:00:00 10,6 8,5 9,7 7,9 27 15 67 36 W 1008,3 17 0 0,2
16.01.2018 02:00:00 10,2 9,1 9,5 7,9 26 14 66 36 W 1008,3 4,9 0 0,8
16.01.2018 01:00:00 10,1 8,7 9,3 7,8 28 15 47 26 W 1008,3 7 0 0,0
16.01.2018 00:00:00 9,8 8,6 9,1 7,8 31 17 57 31 WNW 1009,0 49 0 1,2
15.01.2018 23:00:00 10,3 8,2 9,5 7,7 27 15 49 26 W 1008,7 3,6 0 0,4
15.01.2018 22:00:00 10,6 8,2 9,9 7,7 29 15 59 32 W 1008,5 18 0 0,0
15.01.2018 21:00:00 10,6 8,7 9,8 7,6 31 17 53 29 W 1008,0 11 0 0,0
15.01.2018 20:00:00 10,7 9,0 9,8 7,5 31 17 52 28 W 1008,1 15 0 0,0
15.01.2018 19:00:00 10,6 9,2 9,4 7,5 26 14 47 26 W 1007,9 11 0 0,0
15.01.2018 18:00:00 10,1 8,7 9,2 7,4 28 15 52 28 WNW 1007,8 40 0 0,6
15.01.2018 17:00:00 10,1 7,9 9,3 7,2 39 21 60 32 NW 1007,8 4,3 5 0,2
15.01.2018 16:00:00 11,6 9,3 11,5 7,1 35 19 62 34 WNW 1007,4 19 0 0,0
15.01.2018 15:00:00 11,6 10,7 11,1 7,0 36 19 68 37 WNW 1007,3 19 2 0,0
15.01.2018 14:00:00 11,4 10,9 11,1 6,9 34 19 59 32 W 1007,5 5 0 1,0
15.01.2018 13:00:00 11,5 11,0 11,2 6,7 35 19 67 36 W 1007,9 4,1 0 0,4
15.01.2018 12:00:00 11,5 11,0 11,0 6,6 42 23 65 35 W 1008,2 2,1 0 1,2
15.01.2018 11:00:00 11,2 10,7 10,3 6,6 40 22 70 38 WSW 1009,3 2,2 0 3,6
15.01.2018 10:00:00 10,5 9,9 9,7 6,5 43 23 71 38 WSW 1009,4 1,7 0 3,8
15.01.2018 09:00:00 10,0 9,2 9,1 6,5 37 20 57 31 SW 1010,6 1,9 0 4,3
15.01.2018 08:00:00 9,5 8,6 8,9 6,4 33 18 55 30 SW 1011,7 1,6 0 1,8
15.01.2018 07:00:00 9,4 8,2 8,8 6,5 27 14 49 27 SW 1013,0 2,3 0 1,4
15.01.2018 06:00:00 9,7 7,8 8,4 6,5 24 13 41 22 SW 1014,1 15 0 0,0
15.01.2018 05:00:00 9,4 7,8 8,6 6,5 24 13 35 19 SW 1015,3 49 0 0,0
15.01.2018 04:00:00 8,7 8,1 6,0 6,6 18 10 29 16 SW 1016,4 49 0 0,0
15.01.2018 03:00:00 6,1 5,7 3,0 6,6 9 5 13 7 S 1017,3 10 0 0,0
15.01.2018 02:00:00 3,4 2,8 1,7 6,7 6 3 10 5 SSW 1018,5 3,6 0 0,0
15.01.2018 01:00:00 2,4 1,7 1,0 6,7 4 2 11 6 S 1019,3 0,7 0 0,0
15.01.2018 00:00:00 3,5 2,8 0,0 6,8 8 4 13 7 S 1019,6 7 0 0,0
14.01.2018 23:00:00 2,2 1,3 -1,9 6,8 2 1 9 5 S 1020,4 0,6 0 0,0
14.01.2018 22:00:00 2,3 1,3 -0,5 6,8 6 3 8 5 SSW 1020,4 2,4 0 0,0
14.01.2018 21:00:00 2,9 1,7 0,3 6,8 7 4 8 4 SW 1020,2 5 0 0,0
14.01.2018 20:00:00 3,1 1,6 1,6 6,8 4 2 11 6 W 1019,9 7 0 0,0
14.01.2018 19:00:00 3,0 0,7 1,5 6,8 5 3 8 4 W 1019,1 8 0 0,0
14.01.2018 18:00:00 5,5 2,5 3,5 6,7 3 1 11 6 NNE 1018,8 13 11 0,0
14.01.2018 17:00:00 6,6 3,0 6,5 6,6 6 3 15 8 N 1018,8 15 22 0,0
14.01.2018 16:00:00 7,9 3,4 9,5 6,6 8 5 18 10 NNE 1018,1 17 56 0,0
14.01.2018 15:00:00 7,8 3,6 9,0 6,6 11 6 20 11 NNE 1017,9 19 49 0,0
14.01.2018 14:00:00 7,7 5,3 10,3 6,6 13 7 21 11 NNE 1017,9 14 60 0,0
14.01.2018 13:00:00 6,5 5,4 9,2 6,7 8 4 12 7 NNE 1018,1 11 60 0,0
14.01.2018 12:00:00 4,5 4,1 5,6 6,7 5 3 10 5 NNE 1018,4 8 60 0,0
14.01.2018 11:00:00 2,9 2,5 1,2 6,8 7 4 11 6 NE 1018,3 4,3 54 0,0
14.01.2018 10:00:00 1,2 0,8 -0,2 6,8 8 4 13 7 NNE 1017,6 0,1 10 0,0
14.01.2018 09:00:00 1,0 0,4 0,2 6,9 8 4 16 9 N 1017,0 0,1 0 0,0
14.01.2018 08:00:00 1,9 1,3 0,2 6,9 11 6 16 9 NNE 1016,6 0,3 0 0,0
14.01.2018 07:00:00 2,1 1,4 0,4 6,9 11 6 15 8 NNE 1016,1 5 0 0,0
14.01.2018 06:00:00 2,8 2,1 0,9 7,0 8 4 11 6 NNE 1015,6 6 0 0,0
14.01.2018 05:00:00 2,9 2,2 1,4 7,0 9 5 11 6 NNE 1015,4 6 0 0,0
14.01.2018 04:00:00 3,3 2,6 1,9 7,0 6 4 10 5 N 1015,1 7 0 0,0
14.01.2018 03:00:00 3,7 3,0 2,3 7,1 7 4 10 5 N 1014,7 5 0 0,0
14.01.2018 02:00:00 4,0 3,3 3,4 7,1 7 4 10 5 N 1014,5 7 0 0,0
14.01.2018 01:00:00 4,3 3,6 3,9 7,1 7 4 13 7 NE 1014,5 7 0 0,0
14.01.2018 00:00:00 4,4 3,7 3,8 7,1 9 5 15 8 NE 1014,4 7 0 0,0
13.01.2018 23:00:00 4,5 3,8 4,1 7,1 8 4 12 7 ENE 1014,1 6 0 0,0
13.01.2018 22:00:00 4,7 4,0 4,3 7,1 6 3 14 8 E 1014,1 6 0 0,6
13.01.2018 21:00:00 4,9 4,2 4,5 7,1 9 5 17 9 E 1014,0 5 0 1,3
13.01.2018 20:00:00 5,0 4,3 4,7 7,1 14 7 26 14 ENE 1013,6 4,0 0 1,2
13.01.2018 19:00:00 5,2 4,5 4,9 7,1 14 8 22 12 E 1013,1 3,9 0 1,6
13.01.2018 18:00:00 5,3 4,4 5,0 7,1 11 6 31 17 E 1012,8 4,5 0 1,2
13.01.2018 17:00:00 5,6 4,7 5,3 7,1 16 9 29 16 E 1012,4 4,4 0 1,0
13.01.2018 16:00:00 6,0 5,1 5,8 7,1 15 8 29 16 ESE 1012,2 5 0 0,6
13.01.2018 15:00:00 6,4 5,3 6,0 7,0 13 7 29 16 ESE 1012,2 7 0 0,2
13.01.2018 14:00:00 7,0 5,9 6,7 7,0 19 10 36 20 ESE 1012,5 6 0 0,2
13.01.2018 13:00:00 7,5 6,3 7,0 7,0 19 11 35 19 SE 1013,3 9 0 0,4
13.01.2018 12:00:00 7,4 6,2 7,0 7,0 21 11 37 20 ESE 1014,0 12 0 0,0
13.01.2018 11:00:00 7,2 6,0 6,6 6,9 16 9 36 19 SE 1014,0 14 0 0,0
13.01.2018 10:00:00 6,8 5,6 6,5 6,9 20 11 32 18 SE 1014,1 8 0 0,0
13.01.2018 09:00:00 7,3 6,1 7,2 6,9 18 10 38 21 SE 1014,3 9 0 0,0
13.01.2018 08:00:00 7,7 6,5 7,2 6,8 21 11 34 19 SE 1014,5 10 0 0,0
13.01.2018 07:00:00 7,4 6,0 7,2 6,8 19 10 41 22 SE 1014,6 10 0 0,0
13.01.2018 06:00:00 7,8 5,9 7,6 6,8 23 12 46 25 SE 1014,8 18 0 0,0
13.01.2018 05:00:00 8,1 6,2 7,7 6,8 24 13 40 22 SE 1015,0 28 0 0,0
13.01.2018 04:00:00 7,8 5,8 7,6 6,8 22 12 45 24 SE 1015,9 19 0 0,0
13.01.2018 03:00:00 8,0 5,8 7,8 6,7 24 13 42 23 SE 1016,4 29 0 0,0
13.01.2018 02:00:00 8,0 5,6 7,8 6,7 24 13 46 25 SSE 1017,6 30 0 0,0
13.01.2018 01:00:00 7,9 5,5 7,5 6,7 26 14 44 24 SSE 1018,6 40 0 0,0
13.01.2018 00:00:00 7,7 5,8 6,7 6,7 22 12 44 24 SE 1019,2 27 0 0,0
12.01.2018 23:00:00 6,7 5,2 6,5 6,7 22 12 42 23 SE 1019,7 15 0 0,0
12.01.2018 22:00:00 7,2 5,5 6,8 6,6 23 12 38 20 SE 1020,7 20 0 0,0
12.01.2018 21:00:00 7,1 5,4 7,0 6,6 22 12 43 23 SE 1021,1 26 0 0,0
12.01.2018 20:00:00 7,1 5,2 6,6 6,6 21 11 36 20 SSE 1021,4 20 0 0,0
12.01.2018 19:00:00 6,8 5,1 6,5 6,6 18 10 33 18 SE 1021,6 24 0 0,0
12.01.2018 18:00:00 7,1 5,6 6,9 6,5 20 11 30 16 SE 1022,2 20 0 0,0
12.01.2018 17:00:00 7,4 6,3 7,3 6,5 16 9 31 17 SSE 1022,6 14 0 0,0
12.01.2018 16:00:00 7,6 6,8 7,1 6,5 19 11 29 16 SSE 1022,8 11 0 0,0
12.01.2018 15:00:00 7,0 6,4 7,0 6,5 15 8 27 15 SE 1023,4 8 2 0,0
12.01.2018 14:00:00 6,6 6,2 6,2 6,5 10 6 21 11 ESE 1024,1 4,7 0 0,0
12.01.2018 13:00:00 5,9 5,5 5,9 6,6 11 6 22 12 SE 1025,0 3,3 31 0,0
12.01.2018 12:00:00 4,2 3,9 2,9 6,7 6 4 11 6 E 1025,6 2,7 33 0,2
12.01.2018 11:00:00 2,2 1,8 0,2 6,8 6 4 11 6 NE 1026,4 2,8 27 0,0
12.01.2018 10:00:00 0,9 0,5 -1,8 6,9 6 4 10 5 NE 1026,2 4,2 9 0,0
12.01.2018 09:00:00 -0,2 -0,8 -3,5 7,0 8 4 10 5 NE 1026,1 2,4 0 0,0
12.01.2018 08:00:00 0,4 -0,2 -3,7 7,1 6 3 9 5 NE 1026,2 3,6 0 0,0
12.01.2018 07:00:00 0,2 -0,4 -3,4 7,2 6 3 8 4 ENE 1025,9 0,8 0 0,0
12.01.2018 06:00:00 0,9 0,3 -3,1 7,3 5 3 9 5 NE 1025,9 0,5 0 0,0
12.01.2018 05:00:00 2,2 1,6 -3,1 7,4 7 4 8 5 NNE 1026,2 4,7 0 0,0
12.01.2018 04:00:00 1,7 1,0 -2,2 7,5 4 2 9 5 NE 1026,1 1,8 0 0,0
12.01.2018 03:00:00 1,9 1,0 -1,6 7,5 3 2 5 3 NNE 1026,7 1,2 0 0,0
12.01.2018 02:00:00 2,5 1,5 -1,0 7,6 3 2 7 4 NNE 1026,7 5 0 0,0
12.01.2018 01:00:00 4,0 3,1 -0,4 7,7 8 4 11 6 NE 1026,3 8 0 0,2
12.01.2018 00:00:00 4,3 3,4 1,0 7,7 9 5 14 7 NE 1025,9 9 0 0,0
11.01.2018 23:00:00 4,7 3,7 1,3 7,8 10 5 14 7 N 1025,9 7 0 0,0
11.01.2018 22:00:00 4,6 3,3 2,2 7,7 9 5 15 8 N 1025,7 9 0 0,0
11.01.2018 21:00:00 4,6 2,9 2,6 7,8 6 3 13 7 WNW 1025,5 11 0 0,0
11.01.2018 20:00:00 6,4 4,6 5,3 7,7 9 5 20 11 NNE 1024,2 18 0 0,0
11.01.2018 19:00:00 7,2 5,0 5,5 7,6 13 7 21 11 N 1023,5 30 0 0,0
11.01.2018 18:00:00 7,9 4,5 5,6 7,6 9 5 16 9 N 1022,6 43 17 0,0
11.01.2018 17:00:00 10,3 5,1 11,7 7,5 8 5 21 11 NNE 1021,7 56 60 0,0
11.01.2018 16:00:00 10,9 5,6 12,6 7,5 11 6 30 16 NNE 1020,7 52 60 0,0
11.01.2018 15:00:00 10,4 6,2 9,8 7,4 16 8 44 24 NE 1019,7 33 44 0,0
11.01.2018 14:00:00 10,3 6,3 11,6 7,4 24 13 37 20 NE 1018,9 60 57 0,0
11.01.2018 13:00:00 9,8 6,5 10,7 7,4 21 12 35 19 NE 1018,2 42 54 0,0
11.01.2018 12:00:00 9,7 7,8 8,7 7,4 20 11 40 21 NNE 1017,6 60 55 0,0
11.01.2018 11:00:00 8,7 7,6 6,9 7,5 17 9 28 15 NNE 1016,0 43 33 0,0
11.01.2018 10:00:00 7,5 6,8 5,8 7,5 15 8 22 12 NNE 1014,8 37 14 0,0
11.01.2018 09:00:00 6,7 6,0 4,3 7,5 11 6 19 10 NNE 1012,6 26 0 0,0
11.01.2018 08:00:00 5,1 4,2 3,5 7,6 10 6 14 8 NNE 1011,1 16 0 0,0
11.01.2018 07:00:00 5,4 4,4 2,2 7,6 5 3 9 5 NNE 1009,6 44 0 0,0
11.01.2018 06:00:00 5,2 4,2 3,0 7,6 4 2 11 6 NW 1008,2 58 0 0,0
11.01.2018 05:00:00 4,9 3,6 2,8 7,6 4 2 12 6 WSW 1007,2 60 0 0,0
11.01.2018 04:00:00 6,3 4,8 5,4 7,6 11 6 26 14 WNW 1006,5 60 0 0,2
11.01.2018 03:00:00 7,1 5,6 6,3 7,6 23 12 37 20 WNW 1005,5 5 0 3,0
11.01.2018 02:00:00 7,2 5,7 6,3 7,6 12 7 45 24 WNW 1005,1 4,6 0 0,6
11.01.2018 01:00:00 7,3 5,6 6,5 7,5 27 15 48 26 WNW 1004,4 17 0 0,4
11.01.2018 00:00:00 7,5 5,8 6,6 7,5 24 13 46 25 W 1003,7 15 0 0,0
10.01.2018 23:00:00 7,6 6,4 6,8 7,5 24 13 40 22 WNW 1002,8 9 0 3,5
10.01.2018 22:00:00 8,3 7,1 7,9 7,5 8 4 13 7 E 1001,5 2,9 0 4,6
10.01.2018 21:00:00 8,6 7,2 7,8 7,4 9 5 33 18 SE 1001,0 16 0 0,0
10.01.2018 20:00:00 9,0 7,6 8,1 7,4 16 9 36 19 SSE 1001,0 15 0 0,2
10.01.2018 19:00:00 8,6 7,2 7,8 7,3 16 9 37 20 SE 1001,2 14 0 0,4
10.01.2018 18:00:00 8,2 6,5 7,6 7,2 18 10 47 26 SE 1002,2 19 0 1,2
10.01.2018 17:00:00 9,2 7,1 8,4 7,2 34 18 59 32 S 1003,0 3,6 0 1,6
10.01.2018 16:00:00 10,1 7,2 10,3 7,1 24 13 43 23 SE 1003,3 20 0 0,0
10.01.2018 15:00:00 10,6 6,7 10,9 7,1 26 14 45 25 SSE 1004,0 20 35 0,0
10.01.2018 14:00:00 11,0 6,5 11,1 7,1 18 10 37 20 SSE 1004,8 19 29 0,2
10.01.2018 13:00:00 11,0 7,7 10,3 7,1 18 10 29 15 SSE 1005,9 19 60 0,0
10.01.2018 12:00:00 8,4 8,0 8,0 7,2 7 4 13 7 SE 1007,1 19 60 0,0
10.01.2018 11:00:00 4,8 4,4 3,1 7,3 2 1 5 3 ENE 1007,6 0,7 60 0,0
10.01.2018 10:00:00 2,5 2,1 -0,1 7,4 3 2 5 3 E 1008,0 0,2 28 0,0
10.01.2018 09:00:00 1,9 1,3 -0,9 7,5 3 2 4 2 ENE 1008,2 0,3 0 0,0
10.01.2018 08:00:00 3,5 3,1 0,4 7,5 3 2 7 4 SW 1007,9 0,5 0 0,0

tt = temperature
td = dewpoint
tt 5cm = temperature 5cm
tt -20cm = temperature -20cm
ff = wind speed
fx = gusts
dd = wind direction
ppp = reduced air pressure
vv = visibility
sd = sunshine duration
rr = precipitation

Next stations